Regional Weather Roundup
Issued by NWS

Home | Current Version | Previous Version | Text Only | Print | Product List | Glossary Off
Versions: 1 2 3 4 5 6 7 8 9 10 11 12 13 14 15 16 17 18 19 20 21 22 23 24 25 26 27 28 29 30 31 32 33 34 35 36 37 38 39 40 41 42 43 44 45 46 47 48 49 50

000
ASUS43 KIND 262209
RWRIN

WEATHER ROUNDUP FOR INDIANA
NATIONAL WEATHER SERVICE INDIANAPOLIS IN
600 PM EDT TUE AUG 26 2014

NOTE: "FAIR" INDICATES FEW OR NO CLOUDS BELOW 12,000 FEET WITH NO
SIGNIFICANT WEATHER AND/OR OBSTRUCTIONS TO VISIBILITY.

* - STATION DOES NOT REPORT WEATHER SUCH AS PRECIPITATION OR FOG.

+ - STATION NOT QUALITY CONTROLLED BY THE NATIONAL WEATHER SERVICE.
    USE DATA WITH CAUTION...ESPECIALLY DEWPOINT AND RELATIVE
    HUMIDITY OBSERVATIONS.

INZ001>003-010>013-019-020-262300-
NORTHWEST INDIANA

CITY           SKY/WX    TMP DP  RH WIND       PRES   REMARKS
GARY /AIRPORT/ MOSUNNY   82  70  65 W5        30.08F
KNOX *+        CLOUDY    75  68  78 W3        30.06F
LA PORTE +     CLOUDY    75  73  91 W3        30.08F
MICHIGAN CITY+ PTSUNNY   77  72  83 NW7       30.08S
MONTICELLO +   CLOUDY    72  68  87 S6        30.07F
RENSSELAER +   MOSUNNY   79  73  83 SE5       30.07F
VALPARAISO     PTSUNNY   78  70  76 SW8       30.08F

$$

LMZ046-743>745-262300-
SOUTHERN LAKE MICHIGAN

STATION/POSITION TIME  TEMP WIND        PRES
                       AIR  DIR/SP/G
                 (UTC) (F)  (DEG/KT/KT) (MB)
MICHIGAN CITY    2200   74  280/  8/ 10   N/A

$$

INZ004-005-014>016-021>024-262300-
NORTH CENTRAL INDIANA

CITY           SKY/WX    TMP DP  RH WIND       PRES   REMARKS
ELKHART        SUNNY     73  72  94 CALM      30.07S
GOSHEN         CLOUDY    74  71  91 CALM      30.06S
LOGANSPORT +   CLOUDY    72  64  78 SW5       30.08S
PERU/GRISSOM   PTSUNNY   73  73 100 SW7       30.07F
ROCHESTER +    CLOUDY    73  72  94 CALM      30.08R
SOUTH BEND     CLOUDY    77  71  82 W6        30.07F
WARSAW +       CLOUDY    72  70  94 W5        30.07R

$$

INZ006>009-017-018-025>027-262300-
NORTHEAST INDIANA

CITY           SKY/WX    TMP DP  RH WIND       PRES   REMARKS
ANGOLA *+      SUNNY     75  72  88 SE3       30.08R
AUBURN +       CLOUDY    77  68  73 CALM      30.08R
FORT WAYNE     CLOUDY    78  70  76 S5        30.06F
HUNTINGTON +   CLOUDY    76  70  83 CALM      30.06S

$$

INZ028-029-035-036-043>045-051>053-262300-
WEST CENTRAL INDIANA

CITY           SKY/WX    TMP DP  RH WIND       PRES   REMARKS
GREENCASTLE +  MOSUNNY   77  68  73 N7        30.11F
LAFAYETTE      CLOUDY    71  69  93 SE5       30.07F
TERRE HAUTE    TSTM      75  69  81 NW5       30.12R

$$

INZ030>032-037>040-046>048-054>057-064-065-262300-
CENTRAL INDIANA

CITY           SKY/WX    TMP DP  RH WIND       PRES   REMARKS
CP ATTERBURY + PTSUNNY   82  68  61 N22G31    30.11R
COLUMBUS       PTSUNNY   88  72  58 N9        30.09R
FRANKFORT +    CLOUDY   N/A N/A N/A CALM      30.10F
GREENWOOD *+   PTSUNNY   77  70  78 E5        30.13
INDIANAPOLIS   PTSUNNY   78  68  71 NE8       30.10F
-EAGLE CREEK   PTSUNNY   79  66  64 CALM      30.10F
KOKOMO *+      CLOUDY    73  70  88 NW10      30.08F
MARION +       CLOUDY    77  67  72 SE6       30.08F
MT COMFORT *+  CLOUDY    75  73  94 S8        30.12F
SHELBYVILLE    PTSUNNY   77  66  68 N14G31    30.12R
ZIONSVILLE +   LGT RAIN  74  68  81 CALM      30.12S

$$

INZ033-034-041-042-049-050-058-059-262300-
EAST CENTRAL INDIANA

CITY           SKY/WX    TMP DP  RH WIND       PRES   REMARKS
MUNCIE         PTSUNNY   81  69  67 CALM      30.10F

$$

INZ060-061-067>069-081>083-085>088-262300-
SOUTHWEST INDIANA

CITY           SKY/WX    TMP DP  RH WIND       PRES   REMARKS
EVANSVILLE     MOSUNNY   93  72  50 NE8       30.06S HX 101
WASHINGTON +   MOSUNNY   90  74  58 E5        30.05F HX  99

$$

INZ062-063-066-070>080-084-089>092-262300-
SOUTH CENTRAL AND SOUTHEAST INDIANA

CITY           SKY/WX    TMP DP  RH WIND       PRES   REMARKS
BEDFORD +      PTSUNNY   84  68  58 S3        30.09
BLOOMINGTON    MOSUNNY   90  72  55 N8        30.08F HX  97
SEYMOUR +      MOSUNNY   86  68  54 CALM      30.07

$$



USA.gov is the U.S. government's official web portal to all federal, state and local government web resources and services.